EW3209 Weather Reports


time (UTC)temp
F
wind
direction
speed
knots
gust
knots
rain 1hr
in
rain 24hr
in
rain mn
in
humidity
%
barometer
mb
20190519105816 49 154 0.0 0.0 0.01 0.48 0.03 97 1004.7
20190519105315 49 359 0.0 0.0 0.01 0.48 0.03 97 1004.7
20190519104814 49 212 0.0 0.0 0.01 0.48 0.03 97 1004.7
20190519104314 49 206 0.0 0.0 0.01 0.48 0.03 97 1005.1
20190519103813 49 204 0.0 0.0 0.00 0.47 0.02 97 1005.1
20190519103312 49 214 0.0 0.0 0.00 0.47 0.02 97 1005.1
20190519102811 49 206 0.0 0.0 0.00 0.47 0.02 97 1005.1
20190519102311 49 202 0.0 0.0 0.00 0.47 0.02 97 1005.1
20190519101810 49 201 0.0 0.0 0.00 0.47 0.02 97 1005.1
20190519101309 49 201 0.0 0.0 0.00 0.47 0.02 97 1005.4
20190519100808 49 359 0.0 0.0 0.00 0.47 0.02 97 1005.4
20190519100307 49 204 0.0 0.0 0.00 0.47 0.02 97 1005.4
20190519095806 49 359 0.0 0.0 0.00 0.47 0.02 97 1005.4
20190519095305 48 208 0.0 0.0 0.01 0.47 0.02 97 1005.4
20190519094805 48 201 0.0 0.0 0.01 0.47 0.02 97 1005.4
20190519094303 49 210 0.0 0.0 0.01 0.47 0.02 97 1005.4
20190519093803 49 212 0.0 0.0 0.01 0.47 0.02 97 1005.4
20190519093301 49 206 0.0 0.0 0.01 0.47 0.02 97 1005.4
20190519092801 49 206 0.0 0.0 0.01 0.47 0.02 97 1005.8
20190519092300 49 204 0.0 0.0 0.01 0.47 0.02 97 1005.8
20190519091759 49 209 0.0 0.0 0.01 0.47 0.02 97 1005.8
20190519091258 49 200 0.0 0.0 0.01 0.47 0.02 97 1005.8
20190519090758 49 210 0.0 0.0 0.01 0.47 0.02 97 1005.8
20190519090257 49 201 0.0 0.0 0.01 0.47 0.02 97 1005.8
20190519085756 49 206 0.0 0.0 0.01 0.47 0.02 97 1005.8
20190519085255 50 210 0.0 0.0 0.00 0.46 0.01 97 1005.8
20190519084754 50 208 0.0 0.0 0.00 0.46 0.01 97 1005.8
20190519084253 50 199 0.0 0.0 0.00 0.46 0.01 97 1005.8
20190519083752 50 200 0.0 0.0 0.00 0.46 0.01 97 1005.8
20190519083251 50 207 0.0 0.0 0.00 0.46 0.01 97 1005.8
20190519082750 50 199 0.0 0.0 0.00 0.46 0.01 97 1006.1
20190519082249 51 210 0.0 0.0 0.00 0.46 0.01 97 1006.1
20190519081748 51 359 0.0 0.0 0.01 0.46 0.01 97 1005.8
20190519081246 51 202 0.0 0.0 0.01 0.46 0.01 97 1006.1
20190519080745 51 211 0.0 0.0 0.01 0.46 0.01 97 1006.1
20190519080244 51 209 0.0 0.0 0.01 0.46 0.01 97 1006.1
20190519075744 51 202 0.0 0.0 0.01 0.46 0.01 97 1006.1
20190519075243 51 359 0.0 0.0 0.01 0.46 0.01 96 1006.1
20190519074742 51 204 0.0 0.0 0.01 0.46 0.01 97 1006.1
20190519074242 51 206 0.0 0.0 0.01 0.46 0.01 97 1006.1
20190519073740 52 204 0.0 0.0 0.01 0.46 0.01 97 1006.1
20190519073240 52 212 0.0 0.0 0.01 0.46 0.01 96 1006.1
20190519072739 52 203 0.0 0.0 0.01 0.46 0.01 97 1006.1
20190519072238 52 201 0.0 0.0 0.01 0.46 0.01 97 1006.1
20190519071737 52 201 0.0 0.0 0.00 0.45 0.00 97 1006.1
20190519071237 52 200 0.0 0.0 0.01 0.45 0.00 97 1006.1
20190519070736 53 359 0.0 0.0 0.01 0.45 0.00 97 1006.1
20190519070235 53 359 0.0 0.0 0.01 0.45 0.00 97 1006.1
20190519065734 53 206 0.0 0.0 0.01 0.45 0.45 97 1006.1
20190519065233 52 359 0.0 0.0 0.01 0.45 0.45 97 1006.1
20190519064732 52 207 0.0 0.0 0.01 0.45 0.45 97 1006.4
20190519064232 52 199 0.0 0.0 0.01 0.45 0.45 97 1006.4
20190519063730 53 211 0.0 0.0 0.01 0.45 0.45 97 1006.4
20190519063229 52 205 0.0 0.0 0.01 0.45 0.45 97 1006.1
20190519062728 53 359 0.0 0.0 0.01 0.45 0.45 97 1006.4
20190519062227 52 210 0.0 0.0 0.01 0.45 0.45 97 1006.4
20190519061726 52 202 0.0 0.0 0.01 0.45 0.45 97 1006.4
20190519061226 52 200 0.0 0.0 0.00 0.44 0.44 97 1006.4
20190519060725 52 159 0.0 0.0 0.01 0.44 0.44 97 1006.4
20190519060224 52 154 0.0 0.0 0.01 0.44 0.44 97 1006.4
20190519055722 52 359 0.0 0.0 0.01 0.44 0.44 97 1006.4
20190519055221 52 164 0.0 0.0 0.01 0.44 0.44 97 1006.4
20190519054720 52 155 0.0 0.0 0.01 0.44 0.44 97 1006.4
20190519054219 52 152 0.0 0.0 0.01 0.44 0.44 97 1006.4
20190519053718 52 160 0.0 0.0 0.01 0.44 0.44 97 1006.4
20190519053218 52 359 0.0 0.0 0.01 0.44 0.44 97 1006.4
20190519052716 52 149 0.0 0.0 0.01 0.44 0.44 97 1006.4
20190519052215 52 151 0.0 0.0 0.01 0.44 0.44 97 1006.4
20190519051714 52 150 0.0 0.0 0.02 0.44 0.44 97 1006.4
20190519051213 52 150 0.0 0.0 0.02 0.44 0.44 97 1006.4
20190519050713 52 149 0.0 0.0 0.01 0.43 0.43 97 1006.4
20190519050212 52 150 0.0 0.0 0.01 0.43 0.43 97 1006.4
20190519045711 52 149 0.0 0.0 0.01 0.43 0.43 97 1006.4
20190519045210 52 150 0.0 0.0 0.01 0.43 0.43 97 1006.4
20190519044709 52 152 0.0 0.0 0.01 0.43 0.43 97 1006.4
20190519044208 52 154 0.0 0.0 0.01 0.43 0.43 97 1006.4
20190519043707 52 156 0.0 0.0 0.01 0.43 0.43 97 1006.4
20190519043207 52 156 0.0 0.9 0.01 0.43 0.43 97 1006.4
20190519042706 52 184 0.0 0.9 0.02 0.43 0.43 97 1006.4
20190519042205 52 83 0.9 0.9 0.02 0.43 0.43 97 1006.4
20190519041704 52 127 0.0 0.0 0.01 0.42 0.42 97 1006.4
20190519041203 52 125 0.0 0.0 0.01 0.42 0.42 97 1006.4
20190519040702 52 120 0.0 0.0 0.01 0.42 0.42 96 1006.4
20190519040201 52 95 0.0 0.0 0.01 0.42 0.42 96 1006.4
20190519035701 52 103 0.0 0.0 0.01 0.42 0.42 96 1006.4
20190519035159 52 106 0.0 0.0 0.02 0.42 0.42 96 1006.4
20190519034659 52 111 0.0 0.0 0.02 0.42 0.42 96 1006.4
20190519034157 52 359 0.0 0.0 0.02 0.42 0.42 96 1006.4
20190519033657 52 112 0.0 0.0 0.02 0.42 0.42 96 1006.4
20190519033155 52 359 0.0 0.0 0.01 0.41 0.41 96 1006.8
20190519032654 52 135 0.0 0.0 0.01 0.41 0.41 96 1006.8
20190519032153 52 130 0.0 0.0 0.01 0.41 0.41 96 1006.8
20190519031652 52 152 0.0 4.3 0.01 0.41 0.41 96 1006.8
20190519031151 52 108 0.0 5.2 0.01 0.41 0.41 96 1006.8
20190519030651 52 62 2.6 5.2 0.02 0.41 0.41 96 1006.8
20190519030150 52 122 4.3 5.2 0.02 0.41 0.41 96 1006.8
20190519025649 52 162 0.0 1.7 0.02 0.41 0.41 96 1006.8
20190519025148 52 115 0.0 2.6 0.01 0.40 0.40 96 1006.8
20190519024647 52 95 0.0 3.5 0.01 0.40 0.40 96 1006.8
20190519024146 52 252 0.0 3.5 0.01 0.40 0.40 96 1007.1
20190519023645 52 72 1.7 5.2 0.02 0.40 0.40 95 1006.8
20190519023144 52 88 1.7 5.2 0.02 0.40 0.40 95 1006.8
20190519022643 52 160 5.2 5.2 0.02 0.40 0.40 95 1006.8
20190519022142 52 130 2.6 5.2 0.02 0.40 0.40 95 1007.1
20190519021641 52 219 1.7 5.2 0.02 0.40 0.40 95 1007.1
20190519021140 52 118 3.5 5.2 0.02 0.40 0.40 95 1007.1
20190519020640 52 214 0.0 11.3 0.01 0.39 0.39 95 1007.1
20190519020139 52 35 0.9 11.3 0.02 0.39 0.39 95 1007.1
20190519015638 52 146 1.7 5.2 0.02 0.39 0.39 95 1007.1
20190519015137 52 134 2.6 5.2 0.02 0.39 0.39 95 1007.1
20190519014635 52 139 0.0 4.3 0.02 0.39 0.39 95 1007.5
20190519014134 52 77 1.7 4.3 0.02 0.39 0.39 95 1007.5
20190519013634 52 119 0.9 4.3 0.02 0.38 0.38 95 1007.5
20190519013132 52 43 0.0 4.3 0.02 0.38 0.38 95 1007.5
20190519012631 52 77 0.9 4.3 0.02 0.38 0.38 95 1007.5
20190519012130 52 57 0.0 1.7 0.02 0.38 0.38 95 1007.8
20190519011629 52 117 0.0 0.0 0.02 0.38 0.38 95 1007.8
20190519011127 52 135 0.0 3.5 0.02 0.38 0.38 95 1007.8
20190519010626 52 149 0.0 8.7 0.03 0.38 0.38 95 1008.1
20190519010125 52 118 2.6 8.7 0.02 0.37 0.37 95 1008.1
20190519005624 52 105 3.5 8.7 0.02 0.37 0.37 94 1008.1
20190519005123 52 304 0.9 4.3 0.02 0.37 0.37 94 1008.5
20190519004623 52 164 0.9 3.5 0.02 0.37 0.37 94 1008.5
20190519004122 52 195 3.5 3.5 0.03 0.37 0.37 94 1008.5
20190519003621 52 205 0.9 2.6 0.02 0.36 0.36 94 1008.5
20190519003120 52 154 0.0 2.6 0.02 0.36 0.36 94 1008.1
20190519002619 52 123 1.7 2.6 0.02 0.36 0.36 93 1008.5
20190519002118 52 100 0.9 3.5 0.02 0.36 0.36 93 1008.1
20190519001616 52 97 1.7 3.5 0.03 0.36 0.36 93 1008.5
20190519001115 52 206 0.0 4.3 0.03 0.36 0.36 93 1008.5
20190519000614 52 206 2.6 4.3 0.02 0.35 0.35 93 1008.5
20190519000114 52 130 1.7 3.5 0.02 0.35 0.35 93 1008.5
20190518235613 52 95 1.7 5.2 0.03 0.35 0.35 92 1008.5
20190518235112 52 193 3.5 5.2 0.03 0.35 0.35 92 1008.5
20190518234611 52 74 0.0 7.0 0.03 0.35 0.35 92 1008.8
20190518234110 52 135 0.0 7.0 0.02 0.34 0.34 92 1008.8
20190518233609 52 90 3.5 7.0 0.03 0.34 0.34 92 1008.8
20190518233109 52 354 0.0 2.6 0.03 0.34 0.34 92 1008.8
20190518232608 52 138 0.0 4.3 0.03 0.34 0.34 92 1009.1
20190518232107 52 201 0.0 4.3 0.04 0.34 0.34 92 1009.1
20190518231606 52 170 2.6 4.3 0.03 0.33 0.33 92 1009.1
20190518231105 52 146 0.0 4.3 0.03 0.33 0.33 93 1009.1
20190518230604 52 125 0.0 0.0 0.04 0.33 0.33 94 1009.5
20190518230104 52 205 0.0 0.0 0.04 0.33 0.33 94 1009.5
20190518225602 52 157 0.0 0.0 0.03 0.32 0.32 94 1009.5
20190518225101 52 100 0.0 8.7 0.04 0.32 0.32 94 1009.5
20190518224601 52 183 0.0 8.7 0.04 0.32 0.32 94 1009.5
20190518224059 52 96 5.2 8.7 0.04 0.32 0.32 94 1008.8
20190518223558 52 78 1.7 3.5 0.04 0.31 0.31 94 1009.5
20190518223058 51 158 0.0 0.0 0.04 0.31 0.31 94 1009.8
20190518222557 52 91 0.0 0.0 0.04 0.31 0.31 94 1010.2
20190518222055 51 239 0.0 7.8 0.04 0.30 0.30 94 1010.2
20190518221555 51 100 0.0 12.2 0.04 0.30 0.30 94 1009.8
20190518221054 51 103 2.6 12.2 0.04 0.30 0.30 94 1009.5
20190518220553 52 96 3.5 12.2 0.04 0.29 0.29 94 1009.8
20190518220052 52 108 1.7 3.5 0.04 0.29 0.29 94 1010.5
20190518215551 52 118 0.0 0.9 0.04 0.28 0.28 94 1011.5
20190518215050 52 105 0.0 4.3 0.04 0.28 0.28 94 1011.5
20190518214549 52 130 1.7 6.1 0.04 0.28 0.28 94 1011.5
20190518214048 52 96 1.7 6.1 0.05 0.28 0.28 94 1011.5
20190518213547 52 137 4.3 6.1 0.04 0.27 0.27 94 1011.5
20190518213046 52 163 2.6 4.3 0.05 0.27 0.27 94 1011.5
20190518212545 52 156 2.6 3.5 0.05 0.27 0.27 94 1011.2
20190518212044 52 108 2.6 3.5 0.05 0.26 0.26 94 1011.2
20190518211543 52 205 3.5 4.3 0.05 0.26 0.26 94 1011.2
20190518211042 52 87 1.7 4.3 0.06 0.26 0.26 94 1011.5
20190518210541 52 140 0.0 4.3 0.05 0.25 0.25 94 1011.5
20190518210041 52 93 3.5 4.3 0.06 0.25 0.25 94 1011.5
20190518205540 52 95 0.0 0.9 0.05 0.24 0.24 94 1011.5
20190518205039 52 102 0.0 0.9 0.06 0.24 0.24 94 1011.5
20190518204538 52 156 0.0 5.2 0.06 0.24 0.24 94 1011.5
20190518204037 52 164 0.0 5.2 0.06 0.23 0.23 94 1011.5
20190518203537 51 159 1.7 7.8 0.06 0.23 0.23 94 1011.5
20190518203036 51 131 2.6 7.8 0.06 0.22 0.22 94 1011.5
20190518202535 51 80 0.0 4.3 0.06 0.22 0.22 94 1011.5
20190518202034 51 106 1.7 2.6 0.06 0.21 0.21 95 1011.5
20190518201534 51 83 0.9 4.3 0.07 0.21 0.21 95 1011.5
20190518201033 51 94 1.7 4.3 0.06 0.20 0.20 94 1011.5
20190518200532 51 102 1.7 4.3 0.07 0.20 0.20 94 1011.9
20190518200031 51 94 1.7 4.3 0.06 0.19 0.19 94 1011.9
20190518195530 51 99 2.6 5.2 0.07 0.19 0.19 94 1011.9
20190518195028 51 93 1.7 5.2 0.06 0.18 0.18 94 1011.9
20190518194528 51 95 0.0 1.7 0.07 0.18 0.18 94 1011.9
20190518194027 51 59 0.9 1.7 0.07 0.17 0.17 94 1011.9
20190518193526 51 104 0.9 0.9 0.07 0.17 0.17 94 1011.9
20190518193026 50 108 0.9 2.6 0.07 0.16 0.16 94 1011.9
20190518192525 50 109 0.0 2.6 0.07 0.16 0.16 93 1011.9
20190518192024 50 129 0.0 0.0 0.07 0.15 0.15 93 1011.9
20190518191523 50 88 0.0 0.9 0.06 0.14 0.14 93 1011.9
20190518191022 50 102 0.0 1.7 0.07 0.14 0.14 93 1011.9
20190518190521 50 96 1.7 4.3 0.07 0.13 0.13 93 1011.9
20190518190020 51 129 1.7 4.3 0.07 0.13 0.13 93 1011.9
20190518185519 51 77 0.9 2.6 0.06 0.12 0.12 94 1011.9
20190518185018 51 94 0.0 2.6 0.07 0.12 0.12 94 1011.9
20190518184518 51 92 1.7 4.3 0.07 0.11 0.11 94 1011.9
20190518184017 51 105 2.6 4.3 0.06 0.10 0.10 94 1011.9
20190518183516 51 104 0.9 4.3 0.06 0.10 0.10 94 1011.5
20190518183015 51 100 1.7 4.3 0.06 0.09 0.09 94 1011.9
20190518182514 52 77 0.9 1.7 0.06 0.09 0.09 94 1011.9
20190518182013 52 95 1.7 2.6 0.06 0.08 0.08 94 1011.9
20190518181512 52 116 0.0 2.6 0.06 0.08 0.08 93 1011.9
20190518181011 52 66 1.7 2.6 0.05 0.07 0.07 93 1011.9
20190518180511 52 74 0.9 1.7 0.04 0.06 0.06 93 1011.9
20190518180010 52 36 0.9 0.9 0.05 0.06 0.06 93 1011.9
20190518175509 52 82 0.9 2.6 0.05 0.06 0.06 92 1011.9
20190518175008 52 74 1.7 2.6 0.04 0.05 0.05 92 1011.9
20190518174508 52 118 0.0 0.0 0.04 0.04 0.04 92 1011.9
20190518174007 52 121 0.0 0.0 0.04 0.04 0.04 92 1011.9
20190518173506 52 120 0.0 0.0 0.03 0.03 0.03 92 1012.2
20190518173005 52 119 0.0 0.0 0.03 0.03 0.03 92 1012.2
20190518172504 51 118 0.0 0.0 0.03 0.03 0.03 91 1012.2
20190518172003 51 121 0.0 0.0 0.02 0.02 0.02 91 1012.2
20190518171502 51 123 0.0 0.0 0.02 0.02 0.02 91 1012.2
20190518171001 51 120 0.0 0.0 0.02 0.02 0.02 91 1012.2
20190518170501 51 122 0.0 0.0 0.02 0.02 0.02 91 1012.2
20190518170000 51 116 0.0 0.0 0.01 0.01 0.01 91 1012.2
20190518165459 51 116 0.0 0.0 0.01 0.01 0.01 91 1012.5
20190518164958 51 114 0.0 0.0 0.01 0.01 0.01 91 1012.5
20190518164457 51 112 0.0 0.0 0.00 0.00 0.00 91 1012.5
20190518163956 51 116 0.0 0.0 0.00 0.00 0.00 92 1012.2
20190518163455 51 116 0.0 0.0 0.00 0.00 0.00 91 1012.5
20190518162954 51 123 0.0 0.0 0.00 0.00 0.00 91 1012.5
20190518162453 50 359 0.0 0.0 0.00 0.00 0.00 91 1012.5
20190518161952 50 123 0.0 0.0 0.00 0.00 0.00 91 1012.5
20190518161451 50 121 0.0 0.0 0.00 0.00 0.00 91 1012.5
20190518160950 50 359 0.0 0.0 0.00 0.00 0.00 91 1012.5
20190518160449 50 359 0.0 0.0 0.00 0.00 0.00 91 1012.5
20190518155948 50 116 0.0 0.0 0.00 0.00 0.00 91 1012.5
20190518155447 50 118 0.0 0.0 0.00 0.00 0.00 91 1012.5
20190518154946 50 359 0.0 0.0 0.00 0.00 0.00 92 1012.5
20190518154446 50 113 0.0 0.0 0.00 0.00 0.00 92 1012.5
20190518153944 49 114 0.0 0.0 0.00 0.00 0.00 92 1012.5
20190518153443 49 118 0.0 0.0 0.00 0.00 0.00 92 1012.5
20190518152942 49 113 0.0 0.0 0.00 0.00 0.00 92 1012.5
20190518152441 49 123 0.0 0.0 0.00 0.00 0.00 92 1012.5
20190518151940 49 112 0.0 0.0 0.00 0.00 0.00 92 1012.5
20190518151440 49 112 0.0 0.0 0.00 0.00 0.00 93 1012.5
20190518150939 49 110 0.0 0.0 0.00 0.00 0.00 93 1012.5
20190518150438 48 116 0.0 0.0 0.00 0.00 0.00 93 1012.5
20190518145937 48 121 0.0 0.0 0.00 0.00 0.00 93 1012.5
20190518145436 48 359 0.0 0.0 0.00 0.00 0.00 94 1012.5
20190518144935 48 112 0.0 0.0 0.00 0.00 0.00 94 1012.5
20190518144434 48 122 0.0 0.0 0.00 0.00 0.00 94 1012.2
20190518143933 48 110 0.0 0.0 0.00 0.00 0.00 94 1012.2
20190518143432 48 115 0.0 0.0 0.00 0.00 0.00 94 1012.5
20190518142931 48 112 0.0 0.0 0.00 0.00 0.00 94 1012.5
20190518142430 48 122 0.0 0.0 0.00 0.00 0.00 94 1012.2
20190518141929 48 118 0.0 0.0 0.00 0.00 0.00 94 1012.5
20190518141428 48 111 0.0 0.0 0.00 0.00 0.00 93 1012.5
20190518140927 47 115 0.0 0.0 0.00 0.00 0.00 93 1012.5
20190518140427 47 359 0.0 0.0 0.00 0.00 0.00 93 1012.5
20190518135926 47 359 0.0 0.0 0.00 0.00 0.00 93 1012.5
20190518135425 47 117 0.0 0.0 0.00 0.00 0.00 93 1012.5
20190518134925 47 110 0.0 0.0 0.00 0.00 0.00 93 1012.5
20190518134424 48 108 0.0 0.0 0.00 0.00 0.00 93 1012.5
20190518133923 48 112 0.0 0.0 0.00 0.00 0.00 92 1012.5
20190518133422 48 121 0.0 0.0 0.00 0.00 0.00 92 1012.5
20190518132921 48 115 0.0 0.0 0.00 0.00 0.00 92 1012.5
20190518132420 48 108 0.0 0.0 0.00 0.00 0.00 92 1012.5
20190518131919 47 83 0.0 0.0 0.00 0.00 0.00 92 1012.5
20190518131418 47 84 0.0 0.0 0.00 0.00 0.00 92 1012.5
20190518130917 47 83 0.0 0.0 0.00 0.00 0.00 92 1012.5
20190518130416 47 85 0.0 0.0 0.00 0.00 0.00 92 1012.5
20190518125915 47 359 0.0 0.0 0.00 0.00 0.00 92 1012.5
20190518125415 47 89 0.0 0.0 0.00 0.00 0.00 92 1012.5
20190518124913 47 87 0.0 0.0 0.00 0.00 0.00 93 1012.5
20190518124412 47 359 0.0 0.0 0.00 0.00 0.00 93 1012.9
20190518123911 47 359 0.0 0.0 0.00 0.00 0.00 93 1012.9
20190518123411 47 359 0.0 0.0 0.00 0.00 0.00 92 1012.9
20190518122910 47 359 0.0 0.0 0.00 0.00 0.00 93 1012.9
20190518122409 47 89 0.0 0.0 0.00 0.00 0.00 93 1013.2
20190518121908 47 359 0.0 0.0 0.00 0.00 0.00 93 1013.2
20190518121406 47 359 0.0 0.0 0.00 0.00 0.00 93 1013.2
20190518120906 47 359 0.0 0.0 0.00 0.00 0.00 93 1013.2
20190518120405 47 93 0.0 0.0 0.00 0.00 0.00 93 1013.2
20190518115904 47 86 0.0 0.0 0.00 0.00 0.00 93 1013.5
20190518115403 47 93 0.0 0.0 0.00 0.00 0.00 93 1013.5
20190518114902 47 82 0.0 0.0 0.00 0.00 0.00 93 1013.5
20190518114401 47 93 0.0 0.0 0.00 0.00 0.00 93 1013.5
20190518113900 47 87 0.0 0.0 0.00 0.00 0.00 94 1013.5
20190518113359 47 215 0.0 0.0 0.00 0.00 0.00 94 1013.9
20190518112858 47 359 0.0 0.0 0.00 0.00 0.00 94 1013.9
20190518112357 47 222 0.0 0.0 0.00 0.00 0.00 94 1013.9
20190518111856 47 220 0.0 0.0 0.00 0.00 0.00 94 1013.9
20190518111355 47 227 0.0 0.0 0.00 0.00 0.00 94 1013.9
20190518110854 47 235 0.0 0.0 0.00 0.00 0.00 94 1013.9
20190518110354 47 238 0.0 0.0 0.00 0.00 0.00 94 1014.2